Tracking 19846 objects as of 19-Sep-2019
HD Live streaming from Space Station
objects crossing your sky now

SECOR 9 (EGRS 9)

Track SECOR 9 (EGRS 9) now!
10-day predictions
SECOR 9 (EGRS 9) is classified as:


NORAD ID: 2861
Int'l Code: 1967-065A
Perigee: 3,803.1 km
Apogee: 3,954.0 km
Inclination: 90.1 °
Period: 172.1 minutes
Semi major axis: 10249 km
RCS: 0.3898 m2 (medium)
Launch date: June 29, 1967
Source: United States (US)
Launch site: AIR FORCE WESTERN TEST RANGE (AFWTR)
aabbcc
Your satellite tracking list
Your tracking list is empty




NASA's NSSDC Master Catalog

Two Line Element Set (TLE):
1  2861U 67065A   19262.11574786 -.00000010  00000-0 -69148-2 0  9993
2  2861  90.1250 309.6321 0073630 278.8662  80.3843  8.36656602595331
Source of the keplerian elements: AFSPC